Погода в Пижме

Россия / Республика Марий Эл     56°49′42″N   47°22′48″E
темп.,
°C
ветер,
м/с
пор.,
м/с
влажн.,
%
обл.,
%
осадки,
мм/ч
давл.,
гПа
погр.,
м
24 января, вс
вс2400:00−4ююв3697100 0.4 1016176
03:00−1ююв2499100 0.8 1016125
06:00+1юз3799100 0.4 1016239
09:00+1юз2699100 0.4 1017258
12:00+1ююз36100100 0.0 1018275
15:00+1ююз36100100 0.0 1019249
18:00+1ю3799100 0.0 1020222
21:00+1ю3798100 0.0 1020278
25 января, пн
пн2500:00+1ююз3898100 0.2 1021311
03:00+1ю41098100 0.2 1021408
06:00+1ююз41097100 0.1 1021416
09:00+1ююз41098100 0.6 1022428
12:000ю41096100 0.4 1023464
15:000ю4994100 0.5 1023521
18:00−2ю5991100 0.0 1023544
21:00−3ю41094100 0.0 1024554
26 января, вт
вт2600:00−2ю4991100 0.0 1023642
03:00−3ю4994100 0.1 1023505
06:00−4ю41094100 0.1 1022474
09:00−2ю41094100 0.2 1022490
12:00−1ю4994100 0.1 1021568
15:00−2ююв5109396 0.2 1021458
18:00−3ююв4993100 0.0 1021500
21:00−3ю51192100 0.1 1020613
27 января, ср
ср2700:00−2ю51193100 0.1 1020539
03:00−1ю51193100 0.1 1019545
06:00−1ююв51194100 0.1 1018495
09:00−1ю61292100 0.1 1018785
12:00−1ю61292100 0.0 1018560
15:00−1ююв61293100 0.1 1017520
18:000ююв61296100 0.2 1016492
21:00−1ю51192100 0.3 1016555
28 января, чт
чт2800:00−5ююв51292100 0.0 1016440
03:00−5ю61489100 0.0 1015465
06:00−5ю61388100 0.0 1015502
09:00−5ю51390100 0.0 1014492
12:00−4ю51189100 0.0 1014530
15:00−4ю51189100 0.0 1013527
18:00−6ююв41192100 0.0 1013442
21:00−7ююв4119399 0.0 1013401